Regional Weather Roundup
Issued by NWS Little Rock, AR

Home | Current Version | Previous Version | Graphics & Text | Print | Product List | Glossary On
Versions: 1 2 3 4 5 6 7 8 9 10 11 12 13 14 15 16 17 18 19 20 21 22 23 24 25 26 27 28 29 30 31 32 33 34 35 36 37 38 39 40 41 42 43 44 45 46 47 48 49 50
522
ASUS44 KLZK 280105
RWRLZK

WEATHER ROUNDUP FOR ARKANSAS
NATIONAL WEATHER SERVICE LITTLE ROCK AR
800 PM CDT SAT AUG 27 2016

NOTE: "FAIR" INDICATES FEW OR NO CLOUDS BELOW 12,000 FEET WITH NO
SIGNIFICANT WEATHER AND/OR OBSTRUCTIONS TO VISIBILITY.

ARZ001-003-010-029-280200-
NORTHWEST ARKANSAS

CITY           SKY/WX    TMP DP  RH WIND       PRES   REMARKS
FAYETTEVILLE   CLOUDY    77  74  90 CALM      30.04R
FORT SMITH     CLEAR     81  70  69 E3        29.99R
HARRISON       PTCLDY    75  70  84 S5        30.07R
BENTONVILLE    MOCLDY    81  68  65 S7        30.05R
ROGERS         MOCLDY    80  71  74 SE6       30.06R
SILOAM SPGS    MOCLDY    81  64  57 SE5       30.05R
HIGHFILL       MOCLDY    81  71  71 S7        30.04R HX  85
SPRINGDALE     CLEAR     81  72  74 SE5       30.06R
$$

ARZ004-005-016-280200-
NORTH CENTRAL ARKANSAS

CITY           SKY/WX    TMP DP  RH WIND       PRES   REMARKS
BATESVILLE     PTCLDY    82  72  69 NE5       30.02R HX  87
FLIPPIN        CLEAR     79  72  78 CALM      30.01S
MTN HOME       CLEAR     76  76 100 CALM      30.03R
$$

ARZ040-041-280200-
WEST CENTRAL ARKANSAS

CITY           SKY/WX    TMP DP  RH WIND       PRES   REMARKS
MENA           CLEAR     79  77  94 CALM      30.03R
MOUNT IDA      CLEAR     79  73  82 CALM      30.00R
$$

ARZ009-017-025-026-028-280200-
NORTHEAST ARKANSAS

CITY           SKY/WX    TMP DP  RH WIND       PRES   REMARKS
CORNING          N/A     81  77  89 SE5       30.02S HX  88
JONESBORO      CLEAR     78  71  79 E3        30.01R
NEWPORT        CLOUDY    80  75  84 E5        30.02R HAZE    HX  85
WALNUT RIDGE   CLEAR     82  73  74 E7        30.00S HX  88
BLYTHEVILLE    CLEAR     81  75  82 CALM      30.03R HX  87
$$

ARZ022-023-033-042-044-280200-
CENTRAL ARKANSAS

CITY           SKY/WX    TMP DP  RH WIND       PRES   REMARKS
LITTLE ROCK    PTCLDY    84  71  65 E7        30.00R HX  89
N LITTLE ROCK    N/A     83  73  71 CALM      29.99R HX  88
JACKSONVILLE   CLEAR     82  76  82 CALM      30.00R HX  89
SEARCY         CLEAR     79  76  90 CALM      30.02R
HOT SPRINGS    CLEAR     84  71  65 E3        30.01R HX  89
RUSSELLVILLE   CLEAR     79  77  94 CALM      30.00R
$$

ARZ036-280200-
EAST ARKANSAS

CITY           SKY/WX    TMP DP  RH WIND       PRES   REMARKS
WEST MEMPHIS   CLEAR     80  73  79 CALM      30.01R
$$

ARZ050-053-066-070-073-280200-
SOUTHWEST ARKANSAS

CITY           SKY/WX    TMP DP  RH WIND       PRES   REMARKS
ARKADELPHIA    FAIR      79  77  94 CALM      29.99R
TEXARKANA      CLEAR     82  72  71 E3        29.99R HX  87
EL DORADO      CLOUDY    81  75  82 CALM      29.99R HX  87
DE QUEEN       CLEAR     81  79  94 CALM      29.97R HX  90
$$

ARZ056-057-069-280200-
SOUTHEAST ARKANSAS

CITY           SKY/WX    TMP DP  RH WIND       PRES   REMARKS
PINE BLUFF     CLEAR     83  72  69 E3        29.99R HX  88
STUTTGART      CLEAR     84  70  61 E5        30.00R HX  88
MONTICELLO     CLEAR     83  75  77 CALM      29.99R HX  90

$$






USA.gov is the U.S. government's official web portal to all federal, state and local government web resources and services.